QPF
0.06 0.04 0.06 0.05 0.03 0.02 0.02 0.02 0.02 0.02 0.02 0.01 0.01 0.01 0.01 0.01 0.02 0.02 0.02 0.02 0.01 0.02 0.03 0.04 0.06 0.06 0.06 0.05 0.03 0.02 0.01 0.01 0.01 0.01 0.01 0.01 0.01 0.01 0.01 0.02 0.02 0.02 0.02
0.09 0.05 0.06 0.04 0.03 0.02 0.02 0.02 0.03 0.03 0.02 0.02 0.02 0.02 0.02 0.02 0.03 0.03 0.02 0.01 0.01 0.01 0.03 0.04 0.05 0.06 0.07 0.06 0.04 0.02 0.02 0.01 0.01 0.01 0.01 0.01 0.01 0.01 0.01 0.01 0.02 0.02 0.01
0.11 0.07 0.06 0.05 0.03 0.02 0.01 0.02 0.02 0.04 0.04 0.03 0.02 0.02 0.02 0.03 0.03 0.02 0.01 0.01 0.01 0.01 0.02 0.03 0.04 0.05 0.05 0.06 0.06 0.04 0.03 0.03 0.02 0.02 0.02 0.01 0.01 0.01 0.01 0.01 0.01 0.02 0.02
0.12 0.09 0.07 0.05 0.04 0.02 0.01 0.02 0.02 0.03 0.04 0.03 0.03 0.02 0.02 0.01 0.01 0.01 0.01 0.01 0.01 0.01 0.02 0.03 0.04 0.04 0.04 0.04 0.05 0.05 0.05 0.04 0.03 0.02 0.02 0.02 0.02 0.02 0.01 0.02 0.02 0.02 0.02
0.13 0.10 0.08 0.05 0.04 0.03 0.02 0.02 0.03 0.03 0.05 0.04 0.04 0.03 0.02 0.02 0.01 0.01 0.01 0.01 0.01 0.01 0.03 0.04 0.04 0.04 0.03 0.03 0.03 0.04 0.05 0.05 0.04 0.02 0.02 0.02 0.02 0.02 0.02 0.02 0.02 0.02 0.02
0.12 0.11 0.08 0.05 0.04 0.03 0.02 0.02 0.03 0.04 0.05 0.04 0.05 0.06 0.04 0.03 0.02 0.02 0.01 0.01 0.01 0.02 0.03 0.06 0.05 0.04 0.02 0.02 0.02 0.03 0.03 0.04 0.04 0.03 0.02 0.02 0.02 0.02 0.02 0.02 0.02 0.02 0.02
0.09 0.09 0.08 0.06 0.04 0.03 0.03 0.02 0.03 0.04 0.04 0.03 0.04 0.07 0.08 0.07 0.05 0.04 0.04 0.03 0.02 0.02 0.04 0.07 0.06 0.04 0.02 0.01 0.02 0.03 0.03 0.04 0.04 0.04 0.03 0.03 0.03 0.02 0.02 0.02 0.02 0.02 0.03
0.09 0.08 0.08 0.07 0.05 0.04 0.04 0.03 0.03 0.04 0.04 0.04 0.04 0.05 0.07 0.08 0.08 0.06 0.05 0.04 0.03 0.03 0.04 0.05 0.06 0.05 0.03 0.02 0.02 0.02 0.03 0.03 0.03 0.04 0.03 0.03 0.04 0.03 0.03 0.02 0.02 0.02 0.02
0.08 0.08 0.09 0.08 0.06 0.04 0.04 0.04 0.04 0.04 0.05 0.05 0.04 0.05 0.05 0.06 0.06 0.06 0.06 0.05 0.04 0.03 0.03 0.03 0.03 0.04 0.03 0.02 0.02 0.03 0.03 0.04 0.03 0.03 0.03 0.04 0.03 0.04 0.04 0.04 0.03 0.03 0.03
0.07 0.07 0.09 0.08 0.07 0.04 0.04 0.05 0.05 0.05 0.05 0.05 0.05 0.05 0.06 0.05 0.05 0.06 0.07 0.06 0.05 0.04 0.03 0.03 0.02 0.02 0.02 0.02 0.02 0.04 0.04 0.04 0.04 0.03 0.04 0.05 0.05 0.05 0.05 0.05 0.05 0.04 0.04
0.08 0.08 0.08 0.07 0.07 0.05 0.05 0.05 0.05 0.07 0.07 0.06 0.05 0.04 0.05 0.05 0.05 0.04 0.05 0.06 0.07 0.06 0.05 0.04 0.02 0.02 0.02 0.02 0.01 0.02 0.03 0.04 0.04 0.03 0.03 0.04 0.04 0.05 0.06 0.05 0.06 0.06 0.06
0.09 0.08 0.07 0.07 0.07 0.06 0.05 0.05 0.04 0.05 0.07 0.07 0.07 0.06 0.05 0.05 0.05 0.05 0.04 0.04 0.04 0.05 0.06 0.06 0.04 0.02 0.02 0.02 0.02 0.02 0.02 0.03 0.04 0.03 0.03 0.03 0.03 0.04 0.05 0.04 0.04 0.06 0.08
0.08 0.09 0.07 0.07 0.07 0.06 0.05 0.06 0.06 0.06 0.06 0.06 0.06 0.06 0.04 0.04 0.04 0.03 0.03 0.03 0.03 0.03 0.04 0.06 0.07 0.05 0.03 0.02 0.02 0.02 0.02 0.03 0.05 0.05 0.03 0.03 0.04 0.04 0.03 0.03 0.03 0.03 0.05
0.06 0.07 0.08 0.08 0.08 0.06 0.06 0.06 0.07 0.07 0.06 0.05 0.05 0.05 0.04 0.03 0.03 0.03 0.03 0.03 0.03 0.03 0.02 0.03 0.03 0.05 0.05 0.03 0.03 0.03 0.02 0.03 0.04 0.05 0.04 0.03 0.03 0.03 0.03 0.03 0.02 0.02 0.02
0.06 0.06 0.07 0.08 0.09 0.08 0.06 0.06 0.07 0.07 0.07 0.06 0.06 0.05 0.03 0.02 0.02 0.03 0.03 0.03 0.03 0.03 0.02 0.02 0.02 0.02 0.03 0.04 0.03 0.03 0.03 0.03 0.03 0.04 0.05 0.04 0.03 0.03 0.03 0.03 0.03 0.02 0.02
0.06 0.06 0.07 0.07 0.07 0.08 0.08 0.07 0.07 0.08 0.08 0.07 0.06 0.06 0.05 0.03 0.02 0.02 0.02 0.02 0.02 0.02 0.02 0.02 0.01 0.01 0.02 0.03 0.04 0.03 0.03 0.04 0.05 0.05 0.06 0.06 0.04 0.03 0.03 0.02 0.02 0.02 0.02
0.07 0.05 0.04 0.05 0.05 0.06 0.07 0.06 0.06 0.08 0.09 0.08 0.06 0.05 0.05 0.04 0.03 0.02 0.01 0.01 0.01 0.01 0.01 0.01 0.01 0.01 0.01 0.02 0.04 0.05 0.05 0.05 0.06 0.07 0.07 0.06 0.06 0.04 0.03 0.02 0.02 0.02 0.02
0.10 0.07 0.05 0.04 0.03 0.04 0.06 0.06 0.05 0.06 0.08 0.08 0.07 0.05 0.05 0.04 0.02 0.02 0.01 0.01 0.01 0.01 0.01 0.01 0.01 0.01 0.01 0.02 0.02 0.04 0.05 0.05 0.06 0.07 0.06 0.06 0.06 0.06 0.04 0.02 0.02 0.02 0.02
0.11 0.10 0.08 0.06 0.04 0.03 0.04 0.07 0.06 0.06 0.07 0.07 0.06 0.05 0.04 0.04 0.02 0.02 0.02 0.01 0.01 0.01 0.01 0.01 0.02 0.02 0.02 0.02 0.02 0.03 0.04 0.05 0.05 0.05 0.06 0.07 0.07 0.07 0.07 0.05 0.03 0.02 0.01
0.13 0.10 0.08 0.07 0.06 0.05 0.05 0.07 0.08 0.06 0.07 0.07 0.06 0.05 0.04 0.03 0.02 0.02 0.02 0.01 0.01 0.01 0.01 0.01 0.02 0.02 0.02 0.02 0.03 0.03 0.04 0.04 0.04 0.04 0.04 0.05 0.06 0.07 0.07 0.06 0.04 0.03 0.02
0.14 0.13 0.12 0.10 0.09 0.08 0.07 0.08 0.10 0.09 0.07 0.07 0.07 0.06 0.04 0.03 0.03 0.03 0.03 0.02 0.02 0.02 0.02 0.02 0.02 0.02 0.02 0.02 0.03 0.03 0.04 0.04 0.04 0.04 0.03 0.03 0.04 0.05 0.07 0.07 0.07 0.05 0.04
0.09 0.11 0.13 0.13 0.11 0.10 0.10 0.10 0.11 0.11 0.09 0.07 0.07 0.06 0.05 0.03 0.03 0.03 0.04 0.03 0.03 0.03 0.04 0.04 0.03 0.03 0.03 0.03 0.03 0.03 0.03 0.04 0.04 0.03 0.03 0.04 0.04 0.05 0.06 0.07 0.07 0.06 0.04
0.07 0.08 0.10 0.10 0.11 0.11 0.11 0.10 0.10 0.11 0.10 0.08 0.06 0.06 0.05 0.03 0.03 0.02 0.03 0.04 0.03 0.03 0.04 0.04 0.04 0.04 0.03 0.03 0.03 0.03 0.04 0.05 0.05 0.04 0.04 0.05 0.04 0.05 0.06 0.06 0.07 0.06 0.05
0.05 0.05 0.06 0.06 0.06 0.07 0.08 0.08 0.08 0.08 0.09 0.09 0.08 0.06 0.05 0.04 0.04 0.04 0.05 0.05 0.04 0.04 0.04 0.03 0.03 0.03 0.03 0.03 0.03 0.03 0.04 0.05 0.05 0.05 0.05 0.05 0.04 0.04 0.04 0.04 0.05 0.05 0.05
0.04 0.04 0.05 0.04 0.04 0.04 0.05 0.06 0.07 0.07 0.09 0.10 0.10 0.08 0.07 0.07 0.07 0.07 0.07 0.06 0.05 0.04 0.04 0.03 0.03 0.02 0.02 0.02 0.03 0.04 0.04 0.04 0.04 0.03 0.03 0.04 0.04 0.03 0.03 0.03 0.04 0.04 0.04
0.03 0.03 0.04 0.03 0.03 0.03 0.04 0.04 0.05 0.05 0.06 0.09 0.10 0.09 0.08 0.08 0.08 0.08 0.07 0.06 0.05 0.04 0.03 0.02 0.02 0.01 0.01 0.01 0.02 0.02 0.03 0.04 0.03 0.03 0.02 0.03 0.03 0.04 0.04 0.03 0.03 0.03 0.03
MSLP
1024.46 1023.65 1022.72 1021.73 1020.76 1019.90 1019.22 1018.76 1018.56 1018.57 1018.75 1019.03 1019.34 1019.63 1019.87 1020.05 1020.18 1020.29 1020.40 1020.54 1020.71 1020.89 1021.08 1021.26 1021.40 1021.52 1021.62 1021.70 1021.80 1021.92 1022.06 1022.21 1022.36 1022.48 1022.55 1022.56 1022.52 1022.44 1022.33 1022.22 1022.13 1022.07 1022.04
1024.50 1023.72 1022.79 1021.79 1020.79 1019.89 1019.16 1018.66 1018.40 1018.38 1018.54 1018.82 1019.15 1019.47 1019.75 1019.97 1020.15 1020.29 1020.43 1020.57 1020.74 1020.91 1021.10 1021.27 1021.42 1021.55 1021.67 1021.78 1021.91 1022.06 1022.24 1022.43 1022.61 1022.78 1022.90 1022.97 1022.98 1022.95 1022.89 1022.82 1022.77 1022.74 1022.73
1024.41 1023.67 1022.77 1021.78 1020.78 1019.86 1019.09 1018.55 1018.25 1018.19 1018.33 1018.61 1018.97 1019.33 1019.67 1019.95 1020.18 1020.36 1020.52 1020.66 1020.82 1020.98 1021.14 1021.30 1021.45 1021.58 1021.72 1021.86 1022.01 1022.19 1022.39 1022.60 1022.82 1023.02 1023.19 1023.31 1023.38 1023.41 1023.40 1023.39 1023.37 1023.38 1023.40
1024.20 1023.52 1022.67 1021.72 1020.73 1019.80 1019.02 1018.43 1018.08 1017.98 1018.10 1018.37 1018.75 1019.17 1019.57 1019.92 1020.22 1020.45 1020.64 1020.80 1020.95 1021.09 1021.24 1021.38 1021.52 1021.66 1021.81 1021.96 1022.14 1022.33 1022.55 1022.78 1023.01 1023.24 1023.44 1023.60 1023.72 1023.81 1023.86 1023.90 1023.94 1023.98 1024.04
1023.86 1023.24 1022.46 1021.57 1020.62 1019.70 1018.89 1018.27 1017.86 1017.71 1017.78 1018.05 1018.44 1018.91 1019.38 1019.82 1020.20 1020.51 1020.75 1020.94 1021.10 1021.24 1021.37 1021.51 1021.65 1021.80 1021.96 1022.13 1022.32 1022.52 1022.74 1022.97 1023.21 1023.44 1023.66 1023.86 1024.02 1024.16 1024.27 1024.36 1024.44 1024.52 1024.60
1023.37 1022.83 1022.13 1021.31 1020.42 1019.52 1018.69 1018.01 1017.55 1017.32 1017.34 1017.58 1017.98 1018.49 1019.04 1019.58 1020.07 1020.47 1020.79 1021.03 1021.23 1021.39 1021.53 1021.67 1021.83 1021.99 1022.16 1022.35 1022.55 1022.75 1022.96 1023.18 1023.40 1023.63 1023.85 1024.07 1024.27 1024.45 1024.61 1024.74 1024.86 1024.97 1025.06
1022.71 1022.25 1021.64 1020.91 1020.08 1019.21 1018.37 1017.64 1017.10 1016.79 1016.74 1016.93 1017.33 1017.88 1018.51 1019.15 1019.74 1020.26 1020.68 1021.01 1021.27 1021.48 1021.66 1021.83 1022.01 1022.20 1022.39 1022.59 1022.79 1022.99 1023.18 1023.38 1023.58 1023.79 1024.00 1024.23 1024.45 1024.66 1024.86 1025.04 1025.19 1025.32 1025.43
1021.87 1021.49 1020.99 1020.35 1019.60 1018.76 1017.91 1017.14 1016.51 1016.11 1015.98 1016.11 1016.49 1017.06 1017.76 1018.50 1019.22 1019.86 1020.40 1020.84 1021.19 1021.47 1021.70 1021.92 1022.14 1022.37 1022.59 1022.81 1023.01 1023.20 1023.37 1023.53 1023.70 1023.88 1024.08 1024.31 1024.55 1024.79 1025.03 1025.24 1025.43 1025.58 1025.70
1020.86 1020.57 1020.18 1019.64 1018.97 1018.18 1017.33 1016.51 1015.81 1015.32 1015.09 1015.16 1015.50 1016.08 1016.83 1017.66 1018.50 1019.27 1019.94 1020.50 1020.95 1021.32 1021.64 1021.92 1022.20 1022.46 1022.72 1022.96 1023.16 1023.34 1023.49 1023.62 1023.75 1023.90 1024.08 1024.30 1024.56 1024.83 1025.11 1025.36 1025.59 1025.77 1025.91
1019.74 1019.53 1019.24 1018.81 1018.22 1017.48 1016.65 1015.80 1015.04 1014.46 1014.14 1014.13 1014.44 1015.02 1015.80 1016.70 1017.64 1018.53 1019.33 1020.00 1020.56 1021.03 1021.43 1021.79 1022.12 1022.44 1022.74 1023.00 1023.22 1023.39 1023.52 1023.62 1023.72 1023.84 1024.00 1024.22 1024.49 1024.80 1025.12 1025.42 1025.69 1025.92 1026.09
1018.53 1018.40 1018.21 1017.88 1017.39 1016.71 1015.91 1015.04 1014.23 1013.58 1013.19 1013.11 1013.37 1013.93 1014.74 1015.69 1016.71 1017.70 1018.60 1019.39 1020.05 1020.61 1021.09 1021.53 1021.93 1022.31 1022.65 1022.94 1023.18 1023.35 1023.47 1023.55 1023.62 1023.72 1023.88 1024.10 1024.39 1024.72 1025.09 1025.45 1025.77 1026.05 1026.26
1017.28 1017.23 1017.12 1016.90 1016.49 1015.88 1015.11 1014.26 1013.42 1012.72 1012.27 1012.14 1012.35 1012.89 1013.70 1014.69 1015.77 1016.83 1017.82 1018.69 1019.44 1020.09 1020.65 1021.16 1021.63 1022.06 1022.46 1022.79 1023.05 1023.24 1023.36 1023.44 1023.50 1023.60 1023.75 1023.97 1024.28 1024.65 1025.06 1025.47 1025.85 1026.17 1026.43
1016.01 1016.02 1016.00 1015.85 1015.53 1014.99 1014.27 1013.44 1012.60 1011.87 1011.39 1011.21 1011.40 1011.92 1012.73 1013.73 1014.84 1015.96 1017.01 1017.95 1018.78 1019.49 1020.13 1020.71 1021.24 1021.74 1022.19 1022.57 1022.88 1023.10 1023.24 1023.33 1023.40 1023.50 1023.65 1023.88 1024.21 1024.60 1025.04 1025.50 1025.92 1026.29 1026.60
1014.71 1014.77 1014.82 1014.75 1014.50 1014.03 1013.36 1012.56 1011.74 1011.02 1010.52 1010.33 1010.49 1011.00 1011.80 1012.82 1013.95 1015.10 1016.20 1017.19 1018.07 1018.85 1019.55 1020.19 1020.79 1021.35 1021.86 1022.31 1022.67 1022.94 1023.12 1023.25 1023.34 1023.45 1023.62 1023.86 1024.19 1024.60 1025.06 1025.54 1025.99 1026.40 1026.73
1013.36 1013.47 1013.57 1013.57 1013.38 1012.98 1012.37 1011.62 1010.83 1010.13 1009.64 1009.45 1009.61 1010.11 1010.92 1011.94 1013.08 1014.26 1015.39 1016.42 1017.35 1018.18 1018.93 1019.63 1020.29 1020.92 1021.49 1022.01 1022.44 1022.77 1023.02 1023.19 1023.32 1023.46 1023.64 1023.90 1024.23 1024.64 1025.10 1025.58 1026.04 1026.45 1026.80
1011.92 1012.08 1012.24 1012.29 1012.17 1011.84 1011.29 1010.60 1009.85 1009.19 1008.72 1008.55 1008.72 1009.22 1010.03 1011.06 1012.22 1013.42 1014.57 1015.64 1016.61 1017.49 1018.28 1019.03 1019.75 1020.43 1021.08 1021.66 1022.16 1022.57 1022.89 1023.13 1023.32 1023.50 1023.70 1023.96 1024.29 1024.68 1025.12 1025.58 1026.03 1026.43 1026.77
1010.37 1010.58 1010.81 1010.94 1010.89 1010.62 1010.14 1009.51 1008.82 1008.20 1007.77 1007.62 1007.81 1008.33 1009.15 1010.19 1011.36 1012.58 1013.76 1014.86 1015.86 1016.77 1017.60 1018.40 1019.15 1019.89 1020.59 1021.24 1021.82 1022.30 1022.70 1023.01 1023.26 1023.49 1023.72 1024.00 1024.32 1024.69 1025.10 1025.52 1025.93 1026.31 1026.63
1008.70 1009.00 1009.31 1009.52 1009.55 1009.36 1008.96 1008.40 1007.77 1007.20 1006.81 1006.69 1006.90 1007.44 1008.27 1009.32 1010.51 1011.74 1012.94 1014.07 1015.10 1016.03 1016.90 1017.71 1018.50 1019.27 1020.02 1020.72 1021.36 1021.92 1022.39 1022.78 1023.10 1023.38 1023.65 1023.94 1024.25 1024.60 1024.97 1025.36 1025.73 1026.07 1026.36
1006.93 1007.34 1007.76 1008.08 1008.22 1008.13 1007.81 1007.32 1006.76 1006.24 1005.89 1005.80 1006.03 1006.58 1007.41 1008.48 1009.68 1010.92 1012.15 1013.29 1014.34 1015.29 1016.17 1017.00 1017.80 1018.58 1019.35 1020.09 1020.78 1021.40 1021.94 1022.40 1022.79 1023.12 1023.44 1023.74 1024.05 1024.38 1024.72 1025.07 1025.40 1025.70 1025.97
1005.10 1005.65 1006.21 1006.66 1006.92 1006.94 1006.71 1006.31 1005.81 1005.35 1005.04 1004.98 1005.22 1005.78 1006.62 1007.69 1008.89 1010.15 1011.38 1012.53 1013.59 1014.55 1015.43 1016.25 1017.05 1017.83 1018.61 1019.36 1020.08 1020.74 1021.34 1021.86 1022.31 1022.70 1023.04 1023.37 1023.69 1024.01 1024.33 1024.64 1024.94 1025.22 1025.48
1003.28 1003.97 1004.68 1005.28 1005.67 1005.81 1005.69 1005.37 1004.95 1004.54 1004.27 1004.23 1004.49 1005.05 1005.90 1006.96 1008.17 1009.42 1010.66 1011.81 1012.87 1013.82 1014.69 1015.50 1016.28 1017.05 1017.81 1018.56 1019.29 1019.98 1020.61 1021.18 1021.68 1022.12 1022.50 1022.85 1023.18 1023.49 1023.79 1024.08 1024.36 1024.62 1024.87
1001.52 1002.35 1003.20 1003.94 1004.46 1004.71 1004.69 1004.47 1004.12 1003.77 1003.55 1003.54 1003.81 1004.38 1005.22 1006.29 1007.48 1008.74 1009.97 1011.12 1012.17 1013.12 1013.97 1014.76 1015.51 1016.25 1017.00 1017.73 1018.46 1019.16 1019.82 1020.42 1020.96 1021.43 1021.84 1022.21 1022.54 1022.85 1023.14 1023.41 1023.67 1023.93 1024.18
999.90 1000.84 1001.80 1002.64 1003.26 1003.61 1003.68 1003.54 1003.27 1002.98 1002.81 1002.84 1003.14 1003.72 1004.57 1005.63 1006.82 1008.07 1009.29 1010.44 1011.48 1012.41 1013.25 1014.02 1014.76 1015.47 1016.19 1016.92 1017.64 1018.35 1019.02 1019.64 1020.20 1020.69 1021.12 1021.50 1021.83 1022.13 1022.40 1022.66 1022.91 1023.15 1023.40
998.51 999.48 1000.48 1001.37 1002.04 1002.45 1002.60 1002.53 1002.33 1002.12 1002.01 1002.09 1002.43 1003.04 1003.90 1004.96 1006.15 1007.39 1008.61 1009.74 1010.78 1011.70 1012.53 1013.29 1014.00 1014.71 1015.42 1016.14 1016.86 1017.57 1018.25 1018.89 1019.46 1019.96 1020.40 1020.78 1021.10 1021.38 1021.63 1021.86 1022.08 1022.31 1022.55
997.43 998.35 999.31 1000.17 1000.84 1001.26 1001.44 1001.42 1001.29 1001.15 1001.12 1001.27 1001.66 1002.31 1003.20 1004.27 1005.46 1006.69 1007.89 1009.02 1010.04 1010.95 1011.77 1012.53 1013.25 1013.96 1014.67 1015.40 1016.12 1016.85 1017.54 1018.19 1018.77 1019.27 1019.71 1020.07 1020.37 1020.62 1020.84 1021.04 1021.23 1021.43 1021.65
996.76 997.54 998.37 999.13 999.72 1000.10 1000.27 1000.28 1000.20 1000.14 1000.19 1000.42 1000.88 1001.58 1002.50 1003.58 1004.77 1005.98 1007.16 1008.26 1009.27 1010.17 1010.99 1011.74 1012.47 1013.19 1013.92 1014.66 1015.41 1016.15 1016.86 1017.52 1018.11 1018.61 1019.04 1019.38 1019.66 1019.88 1020.06 1020.22 1020.38 1020.54 1020.73
Thickness
5611 5613 5614 5615 5616 5618 5619 5619 5620 5621 5622 5623 5624 5626 5627 5628 5629 5631 5633 5634 5635 5636 5637 5638 5638 5638 5637 5636 5636 5635 5634 5634 5633 5632 5631 5630 5629 5628 5627 5627 5625 5624 5624
5601 5603 5604 5606 5606 5608 5610 5611 5612 5613 5614 5615 5616 5617 5619 5620 5621 5623 5625 5626 5628 5629 5630 5631 5632 5632 5631 5631 5630 5629 5629 5628 5627 5626 5625 5625 5624 5623 5622 5621 5620 5619 5618
5591 5593 5595 5595 5597 5599 5601 5602 5603 5604 5606 5606 5607 5608 5610 5612 5613 5615 5616 5618 5620 5621 5622 5623 5624 5625 5625 5625 5624 5624 5623 5622 5622 5621 5620 5619 5618 5617 5617 5616 5615 5614 5613
5581 5583 5585 5586 5587 5589 5591 5593 5594 5595 5596 5597 5598 5599 5601 5602 5604 5607 5608 5610 5611 5612 5614 5615 5616 5617 5618 5618 5618 5618 5617 5617 5616 5615 5614 5613 5612 5612 5611 5610 5609 5608 5608
5571 5573 5576 5577 5578 5580 5582 5583 5584 5586 5587 5588 5589 5590 5591 5593 5595 5597 5599 5601 5602 5603 5605 5606 5607 5608 5609 5610 5611 5611 5611 5611 5610 5609 5609 5608 5607 5606 5605 5605 5604 5603 5602
5562 5564 5566 5567 5570 5571 5572 5573 5575 5576 5578 5579 5580 5580 5581 5583 5586 5588 5589 5591 5593 5594 5595 5597 5598 5599 5601 5602 5603 5603 5604 5604 5604 5603 5602 5602 5601 5601 5600 5599 5599 5598 5597
5551 5554 5556 5557 5560 5562 5563 5564 5566 5567 5568 5569 5570 5570 5571 5573 5576 5578 5580 5581 5583 5585 5586 5587 5589 5590 5591 5593 5594 5594 5595 5597 5597 5596 5596 5595 5595 5595 5594 5593 5593 5592 5591
5541 5544 5546 5547 5551 5552 5553 5554 5556 5557 5558 5560 5561 5561 5561 5563 5565 5568 5569 5571 5573 5575 5576 5578 5579 5580 5582 5583 5584 5585 5586 5588 5588 5589 5589 5589 5589 5588 5588 5587 5587 5586 5585
5531 5534 5536 5538 5541 5543 5544 5545 5547 5548 5548 5549 5551 5552 5552 5554 5554 5557 5559 5560 5562 5564 5566 5568 5569 5570 5571 5573 5574 5576 5577 5578 5580 5581 5581 5581 5581 5582 5582 5581 5581 5580 5579
5520 5523 5526 5528 5531 5533 5535 5536 5537 5539 5540 5540 5540 5542 5543 5544 5545 5546 5548 5550 5552 5553 5555 5557 5558 5560 5561 5562 5564 5566 5567 5569 5570 5572 5573 5574 5574 5574 5574 5575 5574 5573 5572
5510 5513 5516 5519 5521 5524 5526 5526 5527 5529 5530 5531 5531 5532 5532 5533 5535 5537 5538 5539 5540 5542 5545 5547 5548 5550 5551 5552 5554 5555 5557 5559 5561 5563 5564 5565 5566 5566 5567 5567 5566 5566 5565
5499 5502 5505 5508 5511 5514 5516 5517 5518 5519 5520 5521 5522 5524 5525 5525 5524 5525 5527 5527 5529 5531 5534 5536 5538 5540 5541 5542 5544 5546 5547 5549 5551 5553 5554 5556 5557 5557 5558 5558 5558 5558 5557
5489 5491 5494 5498 5501 5504 5506 5507 5509 5509 5511 5512 5513 5514 5515 5516 5516 5516 5517 5516 5517 5520 5523 5526 5528 5530 5531 5532 5534 5536 5537 5539 5541 5542 5544 5545 5546 5547 5548 5548 5548 5548 5548
5479 5481 5484 5488 5491 5494 5496 5497 5499 5500 5501 5502 5503 5504 5505 5505 5506 5507 5508 5507 5507 5509 5512 5515 5517 5520 5521 5523 5524 5526 5527 5529 5530 5532 5533 5535 5536 5538 5538 5539 5539 5539 5538
5469 5471 5474 5477 5480 5483 5486 5487 5488 5490 5491 5492 5493 5493 5494 5495 5496 5497 5499 5500 5500 5501 5503 5505 5506 5509 5510 5512 5514 5516 5518 5519 5520 5522 5523 5524 5526 5527 5528 5528 5529 5529 5528
5458 5461 5463 5466 5469 5473 5475 5477 5478 5480 5481 5482 5483 5483 5484 5485 5486 5487 5488 5489 5491 5492 5492 5495 5495 5497 5499 5501 5503 5505 5507 5509 5511 5512 5513 5515 5516 5517 5517 5518 5518 5518 5518
5447 5450 5453 5456 5459 5463 5465 5467 5469 5470 5471 5472 5474 5474 5474 5475 5476 5477 5478 5478 5479 5480 5480 5483 5484 5486 5488 5490 5492 5494 5496 5498 5500 5502 5503 5504 5505 5506 5506 5507 5507 5507 5508
5436 5439 5442 5445 5449 5452 5455 5457 5458 5460 5461 5463 5464 5465 5465 5466 5466 5467 5467 5468 5469 5470 5470 5471 5473 5474 5477 5479 5481 5483 5485 5487 5489 5491 5492 5493 5494 5495 5496 5496 5496 5496 5497
5425 5427 5431 5435 5438 5441 5444 5447 5449 5450 5452 5454 5455 5456 5456 5456 5457 5457 5457 5458 5458 5459 5460 5460 5462 5463 5465 5467 5469 5471 5473 5475 5477 5479 5480 5481 5482 5483 5484 5485 5485 5486 5487
5412 5416 5420 5424 5427 5430 5434 5437 5439 5440 5442 5444 5446 5447 5448 5448 5448 5448 5448 5448 5448 5448 5448 5449 5450 5451 5453 5455 5457 5458 5460 5462 5464 5467 5468 5469 5471 5471 5473 5474 5475 5476 5477
5400 5404 5408 5412 5416 5419 5423 5427 5429 5431 5432 5434 5437 5438 5439 5440 5440 5440 5441 5440 5440 5439 5439 5439 5440 5441 5442 5443 5445 5446 5448 5449 5452 5453 5455 5458 5458 5460 5460 5462 5463 5465 5465
5389 5392 5397 5401 5405 5409 5413 5417 5419 5422 5423 5424 5427 5428 5430 5431 5431 5432 5433 5433 5433 5432 5431 5430 5431 5432 5433 5433 5434 5435 5435 5437 5440 5442 5441 5444 5445 5446 5448 5449 5451 5452 5453
5379 5382 5386 5390 5394 5398 5402 5407 5409 5412 5414 5415 5417 5418 5420 5421 5421 5422 5422 5423 5423 5423 5424 5424 5423 5424 5423 5424 5424 5424 5425 5425 5427 5427 5426 5430 5432 5433 5435 5436 5438 5440 5441
5369 5371 5374 5379 5382 5387 5392 5396 5399 5402 5403 5405 5408 5409 5411 5412 5412 5413 5414 5413 5413 5413 5414 5415 5416 5416 5415 5414 5414 5414 5413 5413 5413 5414 5414 5416 5418 5419 5422 5423 5425 5426 5428
5358 5361 5365 5368 5372 5377 5382 5386 5389 5391 5393 5396 5397 5399 5401 5402 5403 5405 5405 5404 5404 5404 5404 5404 5405 5405 5404 5404 5403 5402 5401 5401 5402 5403 5402 5403 5405 5405 5408 5411 5412 5414 5415
5350 5352 5355 5359 5363 5368 5372 5375 5378 5381 5384 5386 5388 5389 5391 5392 5392 5394 5395 5395 5395 5394 5394 5393 5393 5393 5393 5393 5392 5392 5392 5391 5391 5391 5391 5390 5390 5390 5395 5399 5400 5401 5403